TimeAKST,TemperatureF,Dew PointF,Humidity,Sea Level PressureIn,VisibilityMPH,Wind Direction,Wind SpeedMPH,Gust SpeedMPH,PrecipitationIn,Events,Conditions,WindDirDegrees,DateUTC
12:53 AM,21.9,1.9,42,29.78,10.0,NE,16.1,24.2,N/A,,Mostly Cloudy,40,2012-11-20 09:53:00
1:53 AM,21.0,1.0,42,29.80,10.0,NE,17.3,24.2,N/A,,Clear,40,2012-11-20 10:53:00
2:53 AM,21.9,1.0,40,29.81,10.0,NNE,16.1,24.2,N/A,,Clear,30,2012-11-20 11:53:00
3:53 AM,21.0,1.0,42,29.81,10.0,NE,20.7,28.8,N/A,,Clear,40,2012-11-20 12:53:00
4:53 AM,21.0,1.0,42,29.82,10.0,NNE,15.0,-,N/A,,Overcast,30,2012-11-20 13:53:00
5:53 AM,21.0,1.9,44,29.83,10.0,NNE,17.3,26.5,N/A,,Mostly Cloudy,20,2012-11-20 14:53:00
6:53 AM,21.0,1.9,44,29.83,10.0,NNE,19.6,27.6,N/A,,Overcast,30,2012-11-20 15:53:00
7:53 AM,21.0,1.0,42,29.85,10.0,NNE,17.3,25.3,N/A,,Overcast,30,2012-11-20 16:53:00
8:53 AM,21.0,1.9,44,29.85,10.0,NNE,17.3,26.5,N/A,,Overcast,30,2012-11-20 17:53:00
9:53 AM,21.0,1.9,44,29.86,10.0,NE,13.8,27.6,N/A,,Overcast,40,2012-11-20 18:53:00
10:53 AM,21.0,1.0,42,29.84,10.0,NNE,23.0,33.4,N/A,,Clear,30,2012-11-20 19:53:00
11:53 AM,21.9,1.0,40,29.84,10.0,NE,19.6,26.5,N/A,,Clear,50,2012-11-20 20:53:00
12:53 PM,21.9,1.0,40,29.83,10.0,NNE,18.4,31.1,N/A,,Clear,30,2012-11-20 21:53:00
1:53 PM,21.9,1.0,40,29.83,10.0,NNE,16.1,25.3,N/A,,Clear,30,2012-11-20 22:53:00
2:53 PM,21.9,-0.0,38,29.83,10.0,NNE,17.3,29.9,N/A,,Clear,30,2012-11-20 23:53:00
3:53 PM,23.0,1.0,39,29.83,10.0,NNE,13.8,25.3,N/A,,Clear,30,2012-11-21 00:53:00
4:53 PM,21.0,1.9,44,29.81,10.0,NNE,18.4,29.9,N/A,,Clear,30,2012-11-21 01:53:00
5:53 PM,21.9,3.0,44,29.80,10.0,NNE,17.3,28.8,N/A,,Clear,30,2012-11-21 02:53:00
6:53 PM,21.9,3.0,44,29.80,10.0,NNE,18.4,26.5,N/A,,Clear,20,2012-11-21 03:53:00
7:53 PM,21.9,3.0,44,29.79,10.0,NNE,15.0,20.7,N/A,,Partly Cloudy,30,2012-11-21 04:53:00
8:53 PM,21.9,3.9,46,29.79,10.0,NNE,13.8,25.3,N/A,,Clear,20,2012-11-21 05:53:00
9:53 PM,21.9,3.0,44,29.77,10.0,NNE,21.9,32.2,N/A,,Clear,30,2012-11-21 06:53:00
10:53 PM,21.9,1.9,42,29.77,10.0,NNE,18.4,36.8,N/A,,Clear,30,2012-11-21 07:53:00
11:53 PM,21.9,1.9,42,29.78,10.0,NNE,17.3,24.2,N/A,,Clear,30,2012-11-21 08:53:00